Location: Goettingen
(51.5300°N, 9.9433°E)
Time: 19:50:06
(UTC+02:00)

ISS - Pass Details

Date: 23 May 2018
Orbit: 402 x 407 km, 51.6° (Epoch: 25 May)

Event Time Altitude Azimuth Distance (km) Brightness Sun altitude
Rises 22:07:04 0° 227° (SW) 2,312 0.0 -6.7°
Reaches altitude 10° 22:09:15 10° 217° (SW) 1,455 -1.1 -6.9°
Maximum altitude 22:12:13 33° 152° (SSE) 704 -3.1 -7.2°
Drops below altitude 10° 22:15:12 10° 86° (E) 1,459 -1.4 -7.6°
Sets 22:17:23 0° 76° (ENE) 2,321 -0.3 -7.8°
